Tracking 30261 objects as of 18-Feb-2025
HD Live streaming from Space Station
objects crossing your sky now

ONEWEB-0518

Track ONEWEB-0518 now!
10-day predictions
ONEWEB-0518 is classified as:


NORAD ID: 54136
Int'l Code: 2022-138Z
Perigee: 1,191.5 km
Apogee: 1,194.3 km
Inclination: 87.9 °
Period: 109.1 minutes
Semi major axis: 7563 km
RCS: Unknown
Launch date: October 22, 2022
Source: United Kingdom (UK)
Launch site: SRIHARIKOTA (SRI)
Your satellite tracking list
Your tracking list is empty




NASA's NSSDC Master Catalog

Two Line Element Set (TLE):
1 54136U 22138Z   25048.97960344  .00000048  00000-0  88444-4 0  9990
2 54136  87.9168  41.2302 0001798  90.7014 269.4325 13.19726296113831
Source of the keplerian elements: AFSPC